Regional Weather Roundup
Issued by NWS

Home | Current Version | Previous Version | Graphics & Text | Print | Product List | Glossary On
Versions: 1 2 3 4 5 6 7 8 9 10 11 12 13 14 15 16 17 18 19 20 21 22 23 24 25 26 27 28 29 30 31 32 33 34 35 36 37 38 39 40 41 42 43 44 45 46 47 48 49 50
000
ASUS43 KDMX 261107
RWRIA

WEATHER ROUNDUP FOR IOWA
NATIONAL WEATHER SERVICE DES MOINES IA
600 AM CDT SAT JUL 26 2014

NOTE: "FAIR" INDICATES FEW OR NO CLOUDS BELOW 12,000 FEET WITH NO
SIGNIFICANT WEATHER AND/OR OBSTRUCTIONS TO VISIBILITY.

* - THESE STATIONS ARE NOT NWS STATIONS...THUS NOT UNDER NWS
QUALITY CONTROL.  THEY ALSO DO NOT REPORT WEATHER SUCH
AS PRECIPITATION OR FOG.

IAZ001>003-012>014-020>022-031>034-043>046-261200-
   NORTHWEST IOWA

CITY           SKY/WX    TMP DP  RH WIND       PRES   REMARKS
CARROLL *      PTCLDY    70  70 100 E3        29.79S FOG
CHEROKEE *     MOCLDY    68  68 100 NE6       29.82R FOG
DENISON *      CLEAR     70  70 100 CALM      29.81R FOG
LE MARS *      PTCLDY    68  68 100 CALM      29.82S FOG
ORANGE CITY *  CLOUDY    72  70  94 E6        29.82S FOG
SHELDON *      MOCLDY    70  68  94 E6        29.82S FOG
SPENCER        MOCLDY    67  66  97 CALM      29.84F FOG
STORM LAKE *   PTCLDY    70  70 100 NE9       29.83R FOG
$$

IAZ055>058-069>071-079>083-090>094-261200-
   SOUTHWEST IOWA

CITY           SKY/WX    TMP DP  RH WIND       PRES   REMARKS
ATLANTIC *     PTCLDY    70  70 100 NE5       29.80S FOG
AUDUBON *      FOG       72  70  94 CALM      29.83R VSB 3/4
CLARINDA *     CLEAR     72  72 100 NE6       29.81F
COUNCIL BLFS *   N/A     70  70 100 CALM      29.81S
CRESTON *      CLOUDY    70  70 100 NE7       29.82F FOG
HARLAN  *      MOCLDY    68  68 100 NE3       29.84F FOG
LAMONI         MOCLDY    71  69  93 N7        29.82R FOG
RED OAK *      CLOUDY    72  70  94 CALM      29.80F
SHENANDOAH *   CLEAR     72  72 100 NE7       29.79F
$$

IAZ047>049-059>061-072>074-084-261200-
   CENTRAL IOWA

CITY           SKY/WX    TMP DP  RH WIND       PRES   REMARKS
AMES           MOCLDY    68  67  96 MISG      29.83R FOG
ANKENY *       CLEAR     68  68 100 N3        29.83R
CHARITON *     CLOUDY    68  68 100 NW5       29.83R FOG
DES MOINES     CLOUDY    71  68  90 N3        29.83R
GRINNELL*      CLOUDY    64  63  94 NE3       29.84R
KNOXVILLE *    PTCLDY    68  66  94 NE5       29.81R
MARSHALLTOWN   PTCLDY    65  63  93 NE6       29.83R
PELLA *        CLOUDY    66  66 100 CALM      29.83R
PERRY *        FOG       68  68 100 E9        29.77F VSB 1
$$

IAZ004>006-015-016-023>025-035-036-261200-
   NORTH CENTRAL IOWA

CITY           SKY/WX    TMP DP  RH WIND       PRES   REMARKS
ALGONA *       MOCLDY    70  70 100 CALM      29.84F FOG
CLARION *      CLOUDY    66  66 100 CALM      29.87R
ESTHERVILLE    PTCLDY    68  68 100 E3        29.84F FOG
FORT DODGE *   MOCLDY    66  66 100 E5        29.83F
MASON CITY     FOG       70  70 100 S3        29.86R VSB 1/4
FOREST CITY *  FOG       68  68 100 CALM      29.86R VSB 1
IOWA FALLS *   FOG       70  68  94 CALM      29.86R VSB 1/2
$$

IAZ007>011-017>019-026>030-037>042-050>054-066-261200-
   NORTHEAST IOWA

CITY           SKY/WX    TMP DP  RH WIND       PRES   REMARKS
CEDAR RAPIDS   MOCLDY    65  63  93 E6        29.80F
CHARLES CITY * CLOUDY    68  66  94 CALM      29.86S
CLINTON *      CLOUDY    66  63  88 E6        29.86R
DECORAH *      CLOUDY    66  64  94 CALM      29.85R FOG
DUBUQUE        PTCLDY    63  62  97 S6        29.83F
MONTICELLO *   CLEAR     64  63  94 CALM      29.83R
OELWEIN *      MOCLDY    66  64  94 CALM      29.85R
WATERLOO       PTCLDY    67  64  90 E3        29.83R
$$

IAZ064-065-067-068-078-261200-
   EAST CENTRAL IOWA

CITY           SKY/WX    TMP DP  RH WIND       PRES   REMARKS
DAVENPORT      CLOUDY    66  62  87 NE6       29.84R
MT. PLEASANT * MOCLDY    70  66  88 CALM      29.80R
MUSCATINE *    CLOUDY    68  64  88 NE3       29.81S
QUAD CITIES    CLOUDY    67  63  87 E3        29.82R
$$

IAZ062-063-075>077-085>089-095>099-261200-
   SOUTHEAST IOWA

CITY           SKY/WX    TMP DP  RH WIND       PRES   REMARKS
BURLINGTON     PTCLDY    71  68  90 S9        29.80R
FAIRFIELD *    MOCLDY    66  64  94 CALM      29.81S
FORT MADISON * CLEAR     73  72  94 S8        29.81R
KEOKUK *       CLEAR     73  70  88 S9        29.80R
OSKALOOSA *      N/A     66  64  94 NE3       29.81S
CENTERVILLE *  PTCLDY    73  73 100 NW5       29.83S
OTTUMWA        CLOUDY    67  65  93 E3        29.80S
WASHINGTON *   CLOUDY    66  64  94 NE5       29.81S
$$

ABBREVIATIONS USED IN REMARKS
   TC - TEMPERATURES IN CELSIUS
  WCI - WIND CHILL INDEX
   HX - HEAT INDEX
  VSB - VISIBILITY
$$




USA.gov is the U.S. government's official web portal to all federal, state and local government web resources and services.